Location: Newark
(49.3000°N, 9.4667°E)
Time: 00:42:28
(UTC+00:00)

S-56A Canister/Altair - Pass Details

Date: 28 May 2019
Orbit: 633 x 2499 km, 38.9° (Epoch: 16 June)

Event Time Altitude Azimuth Distance (km) Brightness Sun altitude
Exits shadow 01:42:27 13° 239° (WSW) 2,479 9.6 -12.5°
Maximum altitude 01:47:43 39° 176° (S) 1,747 9.0 -12.0°
Drops below altitude 10° 01:56:15 10° 113° (ESE) 3,867 11.3 -11.2°
Sets 02:00:21 0° 107° (ESE) 5,172 12.1 -10.8°
